Regional Weather Roundup
Issued by NWS Binghamton, NY

Home | Current Version | Previous Version | Text Only | Print | Product List | Glossary On
Versions: 1 2 3 4 5 6 7 8 9 10 11 12 13 14 15 16 17 18 19 20 21 22 23 24 25 26 27 28 29 30 31 32 33 34 35 36 37 38 39 40 41 42 43 44 45 46 47 48 49 50
000
ASUS41 KBGM 232110
RWRBGM

REGIONAL WEATHER ROUNDUP
NATIONAL WEATHER SERVICE BINGHAMTON NY
500 PM EDT SAT JUL 23 2016

Note: "fair" indicates few or no clouds below 12,000 feet with no
significant weather and/or obstructions to visibility.

* = Station(s) that does not report precipitation, such as rain,
snow, etc, also no thunder or fog.

NYZ009-015>018-022>025-036-037-044>046-055>057-062-232200
...Central New York...

CITY           SKY/WX    TMP DP  RH WIND       PRES   REMARKS
Binghamton     MOSUNNY   88  53  30 N20G26    29.91F HX  86
Cortland       FAIR      86  54  32 NW13G22   29.91F
Dansville      MOSUNNY   89  54  30 NW13      29.91F HX  87
Elmira         PTSUNNY   92  50  23 N10G23    29.88F HX  89
Ithaca         MOSUNNY   87  59  38 NW16G23   29.91F HX  86
Hamilton       MOSUNNY   84  57  39 N9G18     29.90S
Hornell        MOSUNNY   90  48  24 NW16G24   29.97F HX  86
Monticello     MOSUNNY   86  52  30 NW15G24   29.89S
Norwich        SUNNY     84  54  34 NW8       29.89S
Oneonta        SUNNY     81  52  36 NW8G16    29.92S
Penn Yan       MOSUNNY   88  53  30 NW16G23   29.92S HX  86
Rome           MOSUNNY   85  61  44 W17G25    29.87R HX  85
Sidney         SUNNY     88  57  35 NW12G21   29.89R HX  86
Syracuse       MOSUNNY   87  58  37 W17G24    29.86F HX  86
$$

PAZ038>040-043-044-047-048-072-232200
...Northeast Pennsylvania...

CITY           SKY/WX    TMP DP  RH WIND       PRES   REMARKS
Hazleton       SUNNY     90  55  31 W9        29.94F HX  88
Scranton       SUNNY     94  51  23 NW13G24   29.86F HX  91
$$
&&
KEY
WCI = Wind Chill Index
VSB = Visibility
HX  = Heat Index
$$



USA.gov is the U.S. government's official web portal to all federal, state and local government web resources and services.